Flag Weather past 2 weeks in Coventry, England, United Kingdom

Now
50 °F

Drizzle. Fog.


Feels Like: 47 °F
Forecast: 44 / 50 °F
Wind: 7 mph from Northeast

Location: Coventry Airport

Current Time: Nov 29, 2014 at 2:40:31 AM

Latest Report: Nov 29, 2014 at 1:50 AM


Visibility: 2 mi

Pressure: 29.77 "Hg

Humidity: 100%

Dew point: 50 °F

Location of CoventryLocation

Historic Weather in Coventry — Graph

°F

Coventry temperature yesterday

Maximum temperature yesterday: 52 °F (at 9:20 AM)
Minimum temperature yesterday: 48 °F (at 12:20 AM)
Average temperature yesterday: 51 °F

Past Weeks' High & Low Weather Summary

 TemperatureHumidityPressure
High59 °F (Nov 22, 12:20 PM)100% (Nov 14, 8:20 AM)30.33 "Hg (Nov 14, 8:20 AM)
Low30 °F (Nov 24, 10:20 PM)72% (Nov 14, 2:50 PM)29.39 "Hg (Nov 14, 6:50 AM)
Average47 °F95%29.86 "Hg
* Reported Nov 14 1:20 AM — Nov 29 1:20 AM, Coventry, Weather by CustomWeather, © 2014

Note: Actual official high and low records may vary slightly from our data, if they occured in-between our weather recording intervals... More about our weather records

Advertising

Coventry weather history for previous 24 hours

 ConditionsComfort  
Time TempWeatherWind HumidityBarometerVisibility
1:20 AM
Nov 29
50 °FDrizzle. Fog.9 mph100%29.77 "Hg3 mi
12:50 AM50 °FDrizzle. Fog.10 mph100%29.74 "Hg3 mi
12:20 AM50 °FDrizzle. Fog.10 mph100%29.74 "Hg2 mi
11:50 PM
Nov 28
50 °FDrizzle. Fog.8 mph100%29.77 "Hg3 mi
11:20 PM50 °FLight rain. Fog.9 mph100%29.74 "Hg3 mi
10:50 PM50 °FLight rain. Fog.10 mph100%29.74 "Hg3 mi
10:20 PM50 °FLight rain. Passing clouds.9 mph100%29.74 "Hg4 mi
9:50 PM50 °FPassing clouds.9 mph100%29.74 "Hg5 mi
9:20 PM50 °FPassing clouds.9 mph100%29.74 "Hg6 mi
8:50 PM52 °FPassing clouds.10 mph88%29.74 "Hg6 mi
8:20 PM52 °FPassing clouds.12 mph88%29.74 "Hg6 mi
7:50 PM52 °FPassing clouds.9 mph88%29.74 "Hg6 mi
7:20 PM52 °FOvercast.10 mph88%29.71 "Hg6 mi
6:50 PM52 °FFog.9 mph94%29.71 "Hg3 mi
6:20 PM52 °FFog.14 mph94%29.68 "Hg3 mi
5:50 PM52 °FFog.13 mph94%29.68 "Hg3 mi
5:20 PM52 °FFog.12 mph94%29.68 "Hg2 mi
4:50 PM52 °FFog.9 mph94%29.68 "Hg2 mi
4:20 PM52 °FFog.12 mph94%29.68 "Hg2 mi
3:50 PM52 °FFog.12 mph94%29.65 "Hg2 mi
3:20 PM52 °FFog.12 mph94%29.65 "Hg2 mi
2:50 PM52 °FFog.12 mph100%29.65 "Hg2 mi
2:20 PM52 °FFog.10 mph100%29.65 "Hg2 mi
1:50 PM52 °FFog.12 mph100%29.62 "Hg2 mi
1:20 PM52 °FFog.12 mph100%29.62 "Hg2 mi
12:50 PM52 °FFog.9 mph100%29.62 "Hg2 mi
12:20 PM52 °FPartly sunny.10 mph94%29.62 "Hg4 mi
11:50 AM52 °FBroken clouds.9 mph94%29.62 "Hg4 mi
11:20 AM52 °FBroken clouds.8 mph94%29.62 "Hg4 mi
10:50 AM52 °FBroken clouds.8 mph94%29.62 "Hg4 mi
10:20 AM52 °FBroken clouds.10 mph94%29.62 "Hg4 mi
9:50 AM52 °FFog.10 mph94%29.62 "Hg3 mi
9:20 AM52 °FFog.9 mph94%29.62 "Hg2 mi
8:50 AM50 °FFog.9 mph100%29.62 "Hg2 mi
8:20 AM50 °FFog.8 mph100%29.62 "Hg2 mi
7:50 AM50 °FFog.10 mph100%29.62 "Hg2 mi
7:20 AM50 °FPassing clouds.10 mph94%29.59 "Hg4 mi
6:50 AM50 °FPassing clouds.12 mph100%29.59 "Hg6 mi
Weather by CustomWeather, © 2014

See weather overviewHow to use our weather pages